Weather in Kamenka

Russia / Penza Oblast     53°11′07″N   44°02′48″E
temp.,
°C
wind,
m/s
gust,
m/s
humid.,
%
clouds,
%
prec.,
mm/h
press.,
hPa
HPBL,
m
12 august, fri
fri1200:00+18ne37790 0.1 1023132
03:00+16ne36830 0.1 1023112
06:00+17ne24850 0.0 1024136
09:00+23ene33630 0.0 1024649
12:00+27ne32450 0.0 10231311
15:00+28nne33383 0.0 10221663
18:00+26ne44445 0.0 1021364
21:00+20ene34585 0.0 102261
13 august, sat
sat1300:00+18ene35680 0.0 102375
03:00+16ene34750 0.0 102255
06:00+17ene24720 0.0 1023102
09:00+24ene33461 0.0 1022643
12:00+28ne32330 0.0 10211302
15:00+29ne33290 0.0 10201580
18:00+26ne46360 0.0 1019335
21:00+20ene48530 0.0 1020134
14 august, sun
sun1400:00+18e36606 0.0 102087
03:00+17e34637 0.0 102060
06:00+17e366681 0.0 1020130
09:00+24ese344572 0.0 1020617
12:00+28e333672 0.0 10191597
15:00+29ene3331100 0.0 10182067
18:00+27nne34355 0.0 1017139
21:00+21ene48595 0.0 1018131
15 august, mon
mon1500:00+19e36690 0.0 101998
03:00+18e36690 0.0 1019101
06:00+18e37570 0.0 1020167
09:00+24ese56360 0.0 1020608
12:00+28e55320 0.0 10201734
15:00+29e55270 0.0 10192120
18:00+27ene57350 0.0 1020633
21:00+21e511520 0.0 1021232
16 august, tue
tue1600:00+19e411600 0.0 1022241
03:00+18e411670 0.0 1022206
06:00+18e411660 0.0 1022266
09:00+25e68485 0.0 1023827
12:00+28e67342 0.0 10222008
15:00+29e663163 0.0 10202264
18:00+27ene5838100 0.0 1020708
21:00+22ene6135187 0.0 1021333